PBD9213 URWA-UGTB

Flight info

Callsign PBD9213
Flight time 1h 19m
Altitude 34000
Route DCT UP B945 MKL B477 KUFAN/N0436F360 N61 LAGAS DCT
Aircraft B738/M-SDE2E3FGHIRWXY/LB1

Departure

Time 2026-04-27 16:34
Airport Astrakhan Narimanovo Boris M. Kustodiev International Airport (URWA)

Arrival

Time 2026-04-27 17:54
Airport Tbilisi International Airport (UGTB)
Time Latitude Longitude Altitude Speed Heading
2026-04-27 15:58 46.28568 48.00143 -53 ft 0 kts
2026-04-27 16:24 46.28569 48.00143 -53 ft 0 kts
2026-04-27 16:25 46.28593 48.00314 -53 ft 12 kts 96°
2026-04-27 16:25 46.28571 48.00606 -53 ft 15 kts 100°
2026-04-27 16:26 46.28532 48.00903 -53 ft 14 kts 96°
2026-04-27 16:26 46.28523 48.00988 -53 ft 14 kts 102°
2026-04-27 16:28 46.28506 48.01115 -53 ft 14 kts 97°
2026-04-27 16:29 46.28445 48.01628 -53 ft 18 kts 96°
2026-04-27 16:30 46.28436 48.01755 -53 ft 18 kts 95°
2026-04-27 16:31 46.28402 48.02203 -53 ft 18 kts 96°
2026-04-27 16:31 46.28372 48.02567 -53 ft 18 kts 97°
2026-04-27 16:32 46.28342 48.02926 -53 ft 17 kts 97°
2026-04-27 16:32 46.28303 48.03091 -53 ft 17 kts 137°
2026-04-27 16:33 46.28125 48.03057 -53 ft 13 kts 266°
2026-04-27 16:33 46.28135 48.02924 -53 ft 13 kts 278°
2026-04-27 16:33 46.28148 48.02786 -53 ft 16 kts 278°
2026-04-27 16:33 46.28190 48.02302 -53 ft 82 kts 282°
2026-04-27 16:34 46.28278 48.01201 -52 ft 139 kts 277°
2026-04-27 16:34 46.28379 47.99577 41 ft 176 kts 276°
2026-04-27 16:34 46.28509 47.97847 569 ft 173 kts 280°
2026-04-27 16:34 46.28641 47.96197 1117 ft 171 kts 278°
2026-04-27 16:35 46.28661 47.94426 1739 ft 183 kts 263°
2026-04-27 16:35 46.28083 47.92790 2374 ft 195 kts 227°
2026-04-27 16:35 46.25412 47.92131 3647 ft 219 kts 157°
2026-04-27 16:36 46.24236 47.93494 4281 ft 225 kts 131°
2026-04-27 16:36 46.23133 47.95106 4906 ft 223 kts 153°
2026-04-27 16:36 46.21762 47.96061 5554 ft 220 kts 166°
2026-04-27 16:36 46.20357 47.96876 6177 ft 223 kts 167°
2026-04-27 16:37 46.18903 47.97573 6703 ft 220 kts 186°
2026-04-27 16:37 46.17484 47.97110 7132 ft 207 kts 224°
2026-04-27 16:37 46.16602 47.95519 7571 ft 210 kts 249°
2026-04-27 16:37 46.16167 47.93455 8025 ft 222 kts 258°
2026-04-27 16:38 46.15791 47.91210 8432 ft 239 kts 254°
2026-04-27 16:38 46.15271 47.88906 9087 ft 245 kts 250°
2026-04-27 16:38 46.14674 47.86615 9762 ft 251 kts 248°
2026-04-27 16:38 46.14039 47.84279 10499 ft 255 kts 247°
2026-04-27 16:39 46.13376 47.81849 10965 ft 269 kts 247°
2026-04-27 16:39 46.12673 47.79254 11412 ft 285 kts 248°
2026-04-27 16:39 46.11952 47.76575 12014 ft 295 kts 248°
2026-04-27 16:39 46.11200 47.73776 12450 ft 310 kts 248°
2026-04-27 16:40 46.10403 47.70817 12950 ft 322 kts 248°
2026-04-27 16:40 46.09586 47.67786 13666 ft 328 kts 248°
2026-04-27 16:40 46.08756 47.64706 14370 ft 335 kts 248°
2026-04-27 16:40 46.07913 47.61587 15243 ft 336 kts 248°
2026-04-27 16:41 46.07077 47.58495 16050 ft 337 kts 248°
2026-04-27 16:41 46.06221 47.55332 16707 ft 343 kts 248°
2026-04-27 16:41 46.05348 47.52119 17359 ft 349 kts 248°
2026-04-27 16:41 46.04465 47.48869 18145 ft 350 kts 248°
2026-04-27 16:42 46.03579 47.45609 18789 ft 355 kts 248°
2026-04-27 16:42 46.02677 47.42299 19447 ft 359 kts 248°
2026-04-27 16:42 46.01758 47.38934 20133 ft 362 kts 248°
2026-04-27 16:42 46.00844 47.35589 20747 ft 366 kts 248°
2026-04-27 16:43 45.99905 47.32159 21336 ft 370 kts 247°
2026-04-27 16:43 45.98968 47.28757 22020 ft 372 kts 246°
2026-04-27 16:43 45.97921 47.25365 22659 ft 373 kts 243°
2026-04-27 16:43 45.96594 47.22140 23205 ft 378 kts 235°
2026-04-27 16:44 45.94936 47.19248 23815 ft 380 kts 228°
2026-04-27 16:44 45.92988 47.16616 24305 ft 387 kts 222°
2026-04-27 16:44 45.90865 47.14290 24964 ft 388 kts 217°
2026-04-27 16:44 45.88546 47.12283 25556 ft 393 kts 210°
2026-04-27 16:45 45.85986 47.10756 26107 ft 400 kts 202°
2026-04-27 16:45 45.83291 47.09745 26602 ft 408 kts 196°
2026-04-27 16:45 45.80488 47.09177 27106 ft 415 kts 190°
2026-04-27 16:45 45.77573 47.09071 27568 ft 424 kts 184°
2026-04-27 16:46 45.74623 47.09375 28148 ft 428 kts 180°
2026-04-27 16:46 45.71624 47.09888 28559 ft 434 kts 178°
2026-04-27 16:46 45.68655 47.10494 29132 ft 435 kts 178°
2026-04-27 16:46 45.65664 47.11138 29626 ft 437 kts 177°
2026-04-27 16:47 45.62685 47.11784 30088 ft 434 kts 178°
2026-04-27 16:47 45.59687 47.12431 30668 ft 433 kts 178°
2026-04-27 16:47 45.56742 47.13053 31193 ft 433 kts 178°
2026-04-27 16:47 45.53753 47.13672 31773 ft 431 kts 178°
2026-04-27 16:48 45.50803 47.14274 32326 ft 429 kts 178°
2026-04-27 16:48 45.47879 47.14864 32878 ft 427 kts 178°
2026-04-27 16:48 45.44915 47.15454 33313 ft 428 kts 178°
2026-04-27 16:49 45.39013 47.16618 34113 ft 428 kts 178°
2026-04-27 16:49 45.36057 47.17195 34135 ft 432 kts 178°
2026-04-27 16:49 45.30156 47.18354 34132 ft 427 kts 178°
2026-04-27 16:50 45.24272 47.19508 34134 ft 427 kts 178°
2026-04-27 16:50 45.18389 47.20658 34133 ft 426 kts 177°
2026-04-27 16:51 45.12484 47.21808 34136 ft 427 kts 177°
2026-04-27 16:51 45.06641 47.22945 34136 ft 427 kts 177°
2026-04-27 16:52 45.00758 47.24090 34137 ft 428 kts 177°
2026-04-27 16:52 44.94877 47.25242 34138 ft 427 kts 177°
2026-04-27 16:53 44.88954 47.26402 34129 ft 428 kts 177°
2026-04-27 16:53 44.83074 47.27552 34136 ft 428 kts 177°
2026-04-27 16:54 44.77191 47.28699 34133 ft 428 kts 177°
2026-04-27 16:54 44.71337 47.29837 34131 ft 427 kts 177°
2026-04-27 16:55 44.65398 47.30989 34123 ft 429 kts 177°
2026-04-27 16:55 44.59529 47.32127 34126 ft 426 kts 177°
2026-04-27 16:56 44.53666 47.33259 34131 ft 427 kts 176°
2026-04-27 16:56 44.47808 47.34371 34140 ft 427 kts 177°
2026-04-27 16:57 44.41942 47.35451 34139 ft 424 kts 177°
2026-04-27 16:57 44.36075 47.36523 34138 ft 425 kts 177°
2026-04-27 16:58 44.30238 47.37590 34141 ft 425 kts 177°
2026-04-27 16:58 44.24340 47.38668 34136 ft 425 kts 177°
2026-04-27 16:59 44.18500 47.39735 34149 ft 425 kts 177°
2026-04-27 16:59 44.12646 47.40805 34143 ft 424 kts 177°
2026-04-27 17:00 44.03899 47.42397 34144 ft 426 kts 177°
2026-04-27 17:01 43.98050 47.43460 34144 ft 424 kts 177°
2026-04-27 17:01 43.92207 47.44520 34142 ft 424 kts 177°
2026-04-27 17:02 43.86343 47.45581 34145 ft 424 kts 177°
2026-04-27 17:02 43.84602 47.45895 34144 ft 423 kts 177°
2026-04-27 17:03 43.81457 47.46463 34143 ft 422 kts 177°
2026-04-27 17:03 43.75604 47.47518 34141 ft 424 kts 177°
2026-04-27 17:04 43.69769 47.48567 34144 ft 424 kts 176°
2026-04-27 17:04 43.63931 47.49616 34135 ft 424 kts 176°
2026-04-27 17:05 43.58102 47.50704 34134 ft 424 kts 176°
2026-04-27 17:05 43.52251 47.51913 34145 ft 424 kts 175°
2026-04-27 17:06 43.46440 47.53133 34146 ft 425 kts 175°
2026-04-27 17:06 43.40592 47.54350 34141 ft 424 kts 175°
2026-04-27 17:07 43.34807 47.55544 34142 ft 425 kts 175°
2026-04-27 17:07 43.28925 47.56747 34151 ft 427 kts 175°
2026-04-27 17:08 43.23095 47.57938 34147 ft 427 kts 175°
2026-04-27 17:08 43.17224 47.59134 34145 ft 427 kts 175°
2026-04-27 17:09 43.11366 47.60326 34136 ft 427 kts 175°
2026-04-27 17:09 43.05506 47.61515 34145 ft 427 kts 175°
2026-04-27 17:10 42.99657 47.62700 34126 ft 425 kts 175°
2026-04-27 17:10 42.93834 47.63876 34114 ft 426 kts 175°
2026-04-27 17:11 42.87968 47.64814 34111 ft 423 kts 181°
2026-04-27 17:11 42.82251 47.63694 34102 ft 416 kts 200°
2026-04-27 17:11 42.79581 47.62214 34121 ft 415 kts 207°
2026-04-27 17:12 42.74742 47.58049 34106 ft 411 kts 221°
2026-04-27 17:12 42.72704 47.55315 34115 ft 414 kts 227°
2026-04-27 17:13 42.69054 47.49318 34109 ft 414 kts 231°
2026-04-27 17:13 42.65558 47.43134 34113 ft 416 kts 232°
2026-04-27 17:14 42.62026 47.36921 34102 ft 413 kts 231°
2026-04-27 17:14 42.58493 47.30789 34132 ft 415 kts 231°
2026-04-27 17:15 42.54928 47.24657 34145 ft 414 kts 231°
2026-04-27 17:15 42.51367 47.18575 34158 ft 414 kts 231°
2026-04-27 17:16 42.47792 47.12499 34145 ft 414 kts 231°
2026-04-27 17:16 42.44192 47.06389 34172 ft 414 kts 231°
2026-04-27 17:17 42.40558 47.00396 34190 ft 416 kts 230°
2026-04-27 17:17 42.36819 46.94388 34185 ft 416 kts 230°
2026-04-27 17:18 42.31242 46.85452 34164 ft 416 kts 230°
2026-04-27 17:18 42.27527 46.79497 34160 ft 416 kts 230°
2026-04-27 17:19 42.23814 46.73548 34174 ft 418 kts 230°
2026-04-27 17:19 42.20079 46.67578 34169 ft 418 kts 230°
2026-04-27 17:20 42.16324 46.61594 34176 ft 419 kts 230°
2026-04-27 17:20 42.12584 46.55647 34168 ft 420 kts 230°
2026-04-27 17:21 42.08809 46.49651 34160 ft 420 kts 230°
2026-04-27 17:21 42.05042 46.43677 34160 ft 419 kts 230°
2026-04-27 17:22 42.01284 46.37723 34157 ft 419 kts 230°
2026-04-27 17:22 41.97581 46.31710 34139 ft 418 kts 233°
2026-04-27 17:23 41.94740 46.24956 34145 ft 421 kts 246°
2026-04-27 17:23 41.92812 46.17536 34111 ft 423 kts 251°
2026-04-27 17:24 41.91151 46.10009 34093 ft 424 kts 252°
2026-04-27 17:24 41.89487 46.02379 34088 ft 425 kts 252°
2026-04-27 17:25 41.87810 45.94856 34104 ft 423 kts 251°
2026-04-27 17:25 41.86094 45.87291 34074 ft 423 kts 251°
2026-04-27 17:26 41.84377 45.79796 34076 ft 423 kts 251°
2026-04-27 17:26 41.82645 45.72284 34075 ft 423 kts 251°
2026-04-27 17:27 41.81787 45.68566 33696 ft 419 kts 251°
2026-04-27 17:27 41.80926 45.64849 33118 ft 416 kts 251°
2026-04-27 17:27 41.80075 45.61180 32430 ft 416 kts 251°
2026-04-27 17:27 41.79214 45.57478 31665 ft 416 kts 251°
2026-04-27 17:28 41.78366 45.53840 30877 ft 418 kts 251°
2026-04-27 17:28 41.77492 45.50093 30012 ft 420 kts 251°
2026-04-27 17:28 41.75750 45.42651 28492 ft 417 kts 251°
2026-04-27 17:29 41.74902 45.39027 27893 ft 413 kts 252°
2026-04-27 17:29 41.74047 45.35384 27250 ft 410 kts 252°
2026-04-27 17:29 41.73196 45.31757 26603 ft 407 kts 251°
2026-04-27 17:29 41.72353 45.28175 25965 ft 405 kts 251°
2026-04-27 17:30 41.71531 45.24608 25293 ft 403 kts 253°
2026-04-27 17:30 41.70285 45.17402 24314 ft 396 kts 258°
2026-04-27 17:30 41.69759 45.13707 24333 ft 409 kts 258°
2026-04-27 17:31 41.69241 45.10004 24339 ft 410 kts 258°
2026-04-27 17:31 41.68711 45.06220 24333 ft 410 kts 258°
2026-04-27 17:31 41.68181 45.02501 24324 ft 406 kts 258°
2026-04-27 17:31 41.67651 44.98854 24321 ft 408 kts 258°
2026-04-27 17:32 41.67099 44.95128 24323 ft 408 kts 258°
2026-04-27 17:32 41.65985 44.87712 24328 ft 410 kts 258°
2026-04-27 17:32 41.65413 44.83946 24327 ft 410 kts 258°
2026-04-27 17:33 41.64854 44.80277 24329 ft 409 kts 258°
2026-04-27 17:33 41.64278 44.76504 24338 ft 410 kts 258°
2026-04-27 17:33 41.63712 44.72792 24329 ft 411 kts 258°
2026-04-27 17:33 41.63140 44.69063 24333 ft 410 kts 258°
2026-04-27 17:34 41.62573 44.65375 24128 ft 410 kts 258°
2026-04-27 17:34 41.61993 44.61612 23865 ft 409 kts 258°
2026-04-27 17:34 41.61429 44.57945 23590 ft 406 kts 258°
2026-04-27 17:34 41.60859 44.54274 23350 ft 405 kts 258°
2026-04-27 17:35 41.60286 44.50593 23094 ft 403 kts 258°
2026-04-27 17:35 41.59716 44.46978 22839 ft 402 kts 257°
2026-04-27 17:35 41.59087 44.43341 22580 ft 399 kts 256°
2026-04-27 17:35 41.58228 44.39835 22320 ft 397 kts 247°
2026-04-27 17:36 41.56935 44.36588 22060 ft 396 kts 238°
2026-04-27 17:36 41.55312 44.33649 21805 ft 396 kts 230°
2026-04-27 17:36 41.53450 44.30967 21542 ft 395 kts 225°
2026-04-27 17:36 41.51434 44.28543 21307 ft 394 kts 219°
2026-04-27 17:37 41.49179 44.26467 21042 ft 394 kts 211°
2026-04-27 17:37 41.46735 44.24824 20779 ft 394 kts 204°
2026-04-27 17:37 41.44150 44.23548 20535 ft 392 kts 199°
2026-04-27 17:37 41.41550 44.22651 20263 ft 392 kts 192°
2026-04-27 17:38 41.38835 44.22183 20010 ft 391 kts 184°
2026-04-27 17:38 41.36144 44.22222 19765 ft 391 kts 177°
2026-04-27 17:38 41.33429 44.22710 19510 ft 393 kts 170°
2026-04-27 17:38 41.30769 44.23562 19247 ft 393 kts 165°
2026-04-27 17:39 41.28232 44.24812 19004 ft 392 kts 157°
2026-04-27 17:39 41.25818 44.26534 18748 ft 391 kts 149°
2026-04-27 17:39 41.23605 44.28614 18492 ft 390 kts 143°
2026-04-27 17:39 41.21580 44.30952 18244 ft 389 kts 137°
2026-04-27 17:40 41.19774 44.33598 17811 ft 383 kts 129°
2026-04-27 17:40 41.18268 44.36506 17294 ft 380 kts 122°
2026-04-27 17:40 41.17043 44.39592 16712 ft 379 kts 116°
2026-04-27 17:40 41.16056 44.42789 16142 ft 377 kts 110°
2026-04-27 17:41 41.15362 44.46129 15560 ft 375 kts 102°
2026-04-27 17:41 41.15006 44.49500 14973 ft 372 kts 94°
2026-04-27 17:41 41.14926 44.52913 14443 ft 370 kts 89°
2026-04-27 17:41 41.15066 44.56279 13821 ft 369 kts 83°
2026-04-27 17:42 41.15531 44.59604 13259 ft 365 kts 74°
2026-04-27 17:42 41.16307 44.62765 12682 ft 363 kts 67°
2026-04-27 17:42 41.17324 44.65836 12093 ft 361 kts 63°
2026-04-27 17:42 41.18500 44.68755 11492 ft 358 kts 57°
2026-04-27 17:43 41.20011 44.71332 11014 ft 350 kts 43°
2026-04-27 17:43 41.21847 44.73306 10709 ft 338 kts 34°
2026-04-27 17:43 41.23699 44.75129 10540 ft 323 kts 37°
2026-04-27 17:43 41.25384 44.76992 10407 ft 309 kts 40°
2026-04-27 17:44 41.26915 44.78902 10310 ft 298 kts 43°
2026-04-27 17:44 41.28354 44.80847 10149 ft 291 kts 44°
2026-04-27 17:44 41.29720 44.82774 9754 ft 289 kts 45°
2026-04-27 17:44 41.31096 44.84734 9401 ft 287 kts 45°
2026-04-27 17:45 41.31198 44.84880 9376 ft 287 kts 45°
2026-04-27 17:45 41.32090 44.86143 9153 ft 286 kts 45°
2026-04-27 17:45 41.33454 44.88066 8732 ft 285 kts 44°
2026-04-27 17:45 41.34810 44.89966 8426 ft 280 kts 44°
2026-04-27 17:46 41.36147 44.91835 8099 ft 277 kts 44°
2026-04-27 17:46 41.37457 44.93670 7768 ft 275 kts 44°
2026-04-27 17:46 41.38765 44.95506 7413 ft 273 kts 44°
2026-04-27 17:46 41.40073 44.97342 7076 ft 270 kts 44°
2026-04-27 17:47 41.41352 44.99139 6762 ft 268 kts 43°
2026-04-27 17:47 41.42196 45.00322 6590 ft 264 kts 44°
2026-04-27 17:47 41.43850 45.02648 6377 ft 253 kts 44°
2026-04-27 17:47 41.45022 45.04297 6116 ft 242 kts 44°
2026-04-27 17:48 41.46167 45.05906 5826 ft 233 kts 43°
2026-04-27 17:48 41.47261 45.07449 5529 ft 226 kts 43°
2026-04-27 17:48 41.48325 45.08951 5229 ft 221 kts 44°
2026-04-27 17:48 41.49371 45.10416 4960 ft 219 kts 44°
2026-04-27 17:49 41.50503 45.11752 4644 ft 219 kts 30°
2026-04-27 17:49 41.51936 45.12360 4350 ft 216 kts 358°
2026-04-27 17:49 41.53352 45.11854 4077 ft 212 kts 328°
2026-04-27 17:49 41.54473 45.10678 4033 ft 197 kts 317°
2026-04-27 17:50 41.55459 45.09453 3991 ft 189 kts 318°
2026-04-27 17:50 41.57348 45.07105 3809 ft 186 kts 319°
2026-04-27 17:50 41.58274 45.05944 3643 ft 182 kts 318°
2026-04-27 17:51 41.59158 45.04836 3297 ft 168 kts 319°
2026-04-27 17:51 41.59970 45.03819 3100 ft 152 kts 317°
2026-04-27 17:51 41.60706 45.02898 2913 ft 141 kts 316°
2026-04-27 17:51 41.61418 45.02005 2731 ft 137 kts 315°
2026-04-27 17:52 41.62086 45.01167 2538 ft 127 kts 315°
2026-04-27 17:52 41.62697 45.00401 2381 ft 117 kts 313°
2026-04-27 17:52 41.63269 44.99684 2237 ft 108 kts 313°
2026-04-27 17:52 41.63837 44.98969 2161 ft 117 kts 313°
2026-04-27 17:53 41.64434 44.98244 2027 ft 112 kts 312°
2026-04-27 17:53 41.64969 44.97581 1792 ft 100 kts 313°
2026-04-27 17:53 41.65433 44.96943 1595 ft 98 kts 314°
2026-04-27 17:53 41.65957 44.96328 1581 ft 95 kts 309°
2026-04-27 17:54 41.66415 44.95706 1543 ft 87 kts 315°
2026-04-27 17:54 41.66759 44.95280 1549 ft 43 kts 314°
2026-04-27 17:54 41.66909 44.95207 1552 ft 23 kts 30°
2026-04-27 17:54 41.66988 44.95303 1555 ft 21 kts 44°
2026-04-27 17:55 41.67118 44.95473 1562 ft 17 kts 40°
2026-04-27 17:55 41.67216 44.95590 1567 ft 11 kts 44°
2026-04-27 17:55 41.67202 44.95712 1567 ft 24 kts 133°
2026-04-27 17:55 41.67078 44.95889 1565 ft 28 kts 125°
2026-04-27 17:56 41.66985 44.96046 1563 ft 18 kts 133°
2026-04-27 17:56 41.66915 44.96144 1561 ft 14 kts 134°
2026-04-27 17:56 41.66896 44.96236 1560 ft 11 kts 39°
2026-04-27 17:56 41.66933 44.96279 1561 ft 1 kts 40°
2026-04-27 17:57 41.66936 44.96285 1562 ft 0 kts 37°